Date String (YYYY-MM-DD hh:mm:ss) UTC,Instrument flags,Ambient pressure (hPa),Sample flow (lpm),Bypass flow (lpm),Sample temperature (°C),Ambient temperature (°C),ASC tube jacket temperature (°C),LED temperature (°C),Box temperature (°C),Sample RH (%),Span deviation,Mass concentration (μg/m³),Mass concentration (μg/m³),Mass concentration (μg/m³)
DateTimeUTC,F1_M11,P_M11,Q1_M11,Q2_M11,T1_M11,T2_M11,T3_M11,T4_M11,T5_M11,U1_M11,ZSPAN_M11,X2_M11,X0_M11,X1_M11
2022-01-01 15:00:00,,0818.8,5.01,0.00,22.2,20.8,00.0,31.5,23.6,05.6,0000.0,0000.21,0002.04,0000.03
2022-01-01 15:01:00,,0818.9,4.99,0.00,22.1,20.7,00.0,31.4,23.5,05.6,0000.0,0000.21,0002.05,0000.03
2022-01-01 15:02:00,,0818.9,5.01,0.00,22.1,21.5,00.0,31.4,23.7,05.7,0000.0,0000.22,0002.07,0000.03
2022-01-01 15:03:00,,0819.0,5.00,0.00,22.3,22.4,00.0,31.4,24.0,05.6,0000.0,0000.24,0002.09,0000.03
2022-01-01 15:04:00,,0819.0,5.00,0.00,22.4,23.1,00.0,31.4,24.2,05.6,0000.0,0000.25,0001.12,0000.02
2022-01-01 15:05:00,,0819.0,5.01,0.00,22.5,22.9,00.0,31.5,24.3,05.8,0000.0,0000.22,0000.82,0000.02
2022-01-01 15:06:00,,0819.0,4.99,0.00,22.5,22.7,00.0,31.5,24.2,05.9,0000.0,0000.26,0001.00,0000.02
2022-01-01 15:07:00,,0819.0,5.00,0.00,22.4,22.4,00.0,31.5,24.1,05.8,0000.0,0000.27,0001.14,0000.02
2022-01-01 15:08:00,,0819.0,4.99,0.00,22.4,22.1,00.0,31.4,24.0,06.0,0000.0,0000.23,0001.10,0000.02
2022-01-01 15:09:00,,0819.1,5.00,0.00,22.3,21.7,00.0,31.4,23.9,06.0,0000.0,0000.24,0001.12,0000.02
2022-01-01 15:10:00,,0819.1,5.01,0.00,22.3,21.4,00.0,31.4,23.8,05.8,0000.0,0000.26,0001.15,0000.02
2022-01-01 15:11:00,,0819.1,5.00,0.00,22.2,21.1,00.0,31.4,23.7,05.7,0000.0,0000.24,0000.87,0000.02
2022-01-01 15:12:00,,0819.2,5.00,0.00,22.1,20.8,00.0,31.3,23.6,05.6,0000.0,0000.26,0001.19,0000.03
2022-01-01 15:13:00,,0819.1,4.99,0.00,22.0,20.8,00.0,31.3,23.5,05.8,0000.0,0000.25,0001.49,0000.03
2022-01-01 15:14:00,,0819.2,5.01,0.00,22.1,21.7,00.0,31.3,23.7,05.8,0000.0,0000.24,0001.47,0000.03
2022-01-01 15:15:00,,0819.3,5.00,0.00,22.3,22.7,00.0,31.3,24.1,05.7,0000.0,0000.22,0002.48,0000.03
2022-01-01 15:16:00,,0819.3,5.00,0.00,22.4,23.1,00.0,31.4,24.3,05.6,0000.0,0000.20,0003.03,0000.03
2022-01-01 15:17:00,,0819.3,5.00,0.00,22.4,22.8,00.0,31.4,24.2,05.7,0000.0,0000.14,0002.76,0000.03
2022-01-01 15:18:00,,0819.2,5.00,0.00,22.4,22.5,00.0,31.4,24.1,05.8,0000.0,0000.17,0002.71,0000.03
2022-01-01 15:19:00,,0819.4,5.01,0.00,22.3,22.2,00.0,31.4,24.0,05.8,0000.0,0000.19,0002.78,0000.02
2022-01-01 15:20:00,,0819.4,5.00,0.00,22.3,21.7,00.0,31.3,23.9,05.7,0000.0,0000.23,0003.37,0000.02
2022-01-01 15:21:00,,0819.5,5.00,0.00,22.2,21.4,00.0,31.3,23.7,05.8,0000.0,0000.22,0004.01,0000.02
2022-01-01 15:22:00,,0819.5,5.01,0.00,22.1,21.1,00.0,31.3,23.6,05.8,0000.0,0000.22,0003.97,0000.02
2022-01-01 15:23:00,,0819.5,5.00,0.00,22.1,20.9,00.0,31.2,23.5,05.8,0000.0,0000.22,0003.79,0000.02
2022-01-01 15:24:00,,0819.5,4.99,0.00,22.0,20.8,00.0,31.2,23.4,05.8,0000.0,0000.22,0004.15,0000.02
2022-01-01 15:25:00,,0819.5,5.02,0.00,22.0,21.5,00.0,31.2,23.6,05.8,0000.0,0000.22,0004.17,0000.02
2022-01-01 15:26:00,,0819.5,4.99,0.00,22.2,22.5,00.0,31.2,24.0,05.7,0000.0,0000.22,0003.15,0000.02
2022-01-01 15:27:00,,0819.5,4.99,0.00,22.3,23.1,00.0,31.3,24.2,05.8,0000.0,0000.22,0002.64,0000.02
2022-01-01 15:28:00,,0819.6,5.01,0.00,22.4,22.8,00.0,31.3,24.2,05.7,0000.0,0000.24,0002.67,0000.02
2022-01-01 15:29:00,,0819.6,5.00,0.00,22.3,22.5,00.0,31.3,24.1,05.7,0000.0,0000.19,0002.65,0000.02
2022-01-01 15:30:00,,0819.6,5.00,0.00,22.3,22.2,00.0,31.3,24.0,05.8,0000.0,0000.19,0004.81,0000.02
2022-01-01 15:31:00,,0819.7,5.00,0.00,22.2,22.0,00.0,31.3,23.8,05.9,0000.0,0000.18,0006.55,0000.02
2022-01-01 15:32:00,,0819.7,5.01,0.00,22.2,21.8,00.0,31.3,23.7,05.9,0000.0,0000.20,0006.20,0000.02
2022-01-01 15:33:00,,0819.7,5.00,0.00,22.1,21.6,00.0,31.2,23.6,05.9,0000.0,0000.19,0006.25,0000.02
2022-01-01 15:34:00,,0819.8,4.99,0.00,22.0,21.5,00.0,31.2,23.5,05.9,0000.0,0000.18,0006.01,0000.02
2022-01-01 15:35:00,,0819.9,4.99,0.00,22.0,21.5,00.0,31.2,23.5,06.1,0000.0,0000.18,0005.48,0000.03
2022-01-01 15:36:00,,0819.9,5.02,0.00,22.1,22.2,00.0,31.2,23.8,06.0,0000.0,0000.20,0005.59,0000.03
2022-01-01 15:37:00,,0819.9,4.99,0.00,22.3,23.0,00.0,31.3,24.1,05.9,0000.0,0000.20,0005.48,0000.03
2022-01-01 15:38:00,,0819.8,5.01,0.00,22.4,23.1,00.0,31.3,24.2,05.8,0000.0,0000.20,0005.47,0000.03
2022-01-01 15:39:00,,0819.8,5.00,0.00,22.4,22.8,00.0,31.3,24.2,05.7,0000.0,0000.19,0005.46,0000.03
2022-01-01 15:40:00,,0819.9,5.03,0.00,22.3,22.5,00.0,31.3,24.0,05.7,0000.0,0000.19,0005.32,0000.03
2022-01-01 15:41:00,,0819.9,4.99,0.00,22.3,22.2,00.0,31.3,23.9,05.8,0000.0,0000.15,0003.37,0000.03
2022-01-01 15:42:00,,0819.9,5.01,0.00,22.2,21.9,00.0,31.3,23.9,05.9,0000.0,0000.12,0000.92,0000.02
2022-01-01 15:43:00,,0820.0,4.99,0.00,22.2,21.6,00.0,31.3,23.7,06.0,0000.0,0000.11,0000.65,0000.02
2022-01-01 15:44:00,,0819.9,5.01,0.00,22.1,21.2,00.0,31.2,23.6,06.1,0000.0,0000.11,0000.58,0000.02
2022-01-01 15:45:00,,0820.0,4.99,0.00,22.0,20.9,00.0,31.2,23.5,06.2,0000.0,0000.15,0001.01,0000.03
2022-01-01 15:46:00,,0819.9,4.99,0.00,22.0,21.3,00.0,31.2,23.6,06.3,0000.0,0000.16,0001.15,0000.02
2022-01-01 15:47:00,,0820.0,5.02,0.00,22.2,22.3,00.0,31.2,23.9,06.2,0000.0,0000.14,0001.04,0000.02
2022-01-01 15:48:00,,0820.0,5.00,0.00,22.3,23.1,00.0,31.3,24.2,06.2,0000.0,0000.15,0001.05,0000.02
2022-01-01 15:49:00,,0820.0,5.00,0.00,22.4,23.0,00.0,31.3,24.3,06.1,0000.0,0000.16,0001.16,0000.02
2022-01-01 15:50:00,,0820.1,4.99,0.00,22.4,22.5,00.0,31.3,24.2,06.1,0000.0,0000.15,0001.15,0000.02
2022-01-01 15:51:00,,0820.1,5.00,0.00,22.4,22.0,00.0,31.3,24.0,06.2,0000.0,0000.15,0001.16,0000.02
2022-01-01 15:52:00,,0820.1,5.01,0.00,22.3,21.7,00.0,31.3,23.9,06.2,0000.0,0000.17,0001.21,0000.02
2022-01-01 15:53:00,,0820.2,4.99,0.00,22.2,21.5,00.0,31.3,23.9,06.2,0000.0,0000.16,0000.97,0000.02
2022-01-01 15:54:00,,0820.2,5.00,0.00,22.2,21.3,00.0,31.3,23.8,06.3,0000.0,0000.17,0000.94,0000.01
2022-01-01 15:55:00,,0820.3,5.00,0.00,22.2,21.1,00.0,31.2,23.7,06.3,0000.0,0000.16,0000.94,0000.01
2022-01-01 15:56:00,,0820.3,5.00,0.00,22.1,21.0,00.0,31.2,23.7,06.4,0000.0,0000.15,0000.51,0000.01
2022-01-01 15:57:00,,0820.3,5.00,0.00,22.1,21.0,00.0,31.2,23.6,06.4,0000.0,0000.13,0000.45,0000.01
2022-01-01 15:58:00,,0820.4,4.99,0.00,22.1,21.3,00.0,31.2,23.7,06.3,0000.0,0000.13,0000.49,0000.02
2022-01-01 15:59:00,,0820.4,5.00,0.00,22.2,22.1,00.0,31.2,23.9,06.3,0000.0,0000.12,0000.68,0000.02
